DW8622 Weather Reports


Display with metric or nautical units.
time (UTC)temp
F
wind
direction
speed
MPH
gust
MPH
rain 1hr
in
rain 24hr
in
rain mn
in
humidity
%
barometer
mb
20260505010005 53 340 4.0 10.0 0.00 0.00 0.00 89 1012.0
20260505005506 53 350 4.0 10.0 0.00 0.00 0.00 90 1012.0
20260505005006 53 347 4.0 18.0 0.00 0.00 0.00 89 1012.0
20260505004505 53 344 6.0 18.0 0.00 0.00 0.00 89 1012.0
20260505004006 53 344 6.0 13.0 0.00 0.00 0.00 89 1012.0
20260505003006 53 336 5.0 11.0 0.00 0.00 0.00 89 1012.1
20260505002005 54 342 4.0 11.0 0.00 0.00 0.00 89 1012.1
20260505001506 54 343 4.0 11.0 0.00 0.00 0.00 89 1012.1
20260505000506 54 336 5.0 12.0 0.00 0.00 0.00 89 1012.1
20260505000006 54 337 5.0 12.0 0.00 0.00 0.00 90 1012.2
20260504235505 54 337 5.0 11.0 0.00 0.00 0.00 90 1012.2
20260504234506 54 337 6.0 17.0 0.00 0.00 0.00 90 1012.2
20260504234006 54 335 6.0 17.0 0.00 0.00 0.00 90 1012.2
20260504233505 54 333 6.0 12.0 0.00 0.00 0.00 90 1012.3
20260504233006 54 329 7.0 12.0 0.00 0.00 0.00 90 1012.3
20260504232506 54 329 6.0 12.0 0.00 0.01 0.00 90 1012.4
20260504232005 54 329 4.0 13.0 0.00 0.01 0.00 90 1012.5
20260504231505 54 328 5.0 13.0 0.00 0.01 0.00 91 1012.4
20260504231005 54 329 5.0 12.0 0.00 0.01 0.00 91 1012.4
20260504230505 54 331 5.0 10.0 0.00 0.01 0.00 91 1012.5
20260504225505 55 336 3.0 10.0 0.00 0.01 0.00 91 1012.5
20260504225005 55 333 3.0 9.0 0.00 0.01 0.00 91 1012.5
20260504224505 55 329 4.0 11.0 0.00 0.01 0.00 91 1012.5
20260504224005 55 329 5.0 11.0 0.00 0.01 0.00 91 1012.6
20260504223506 55 330 5.0 10.0 0.00 0.01 0.00 91 1012.6
20260504223006 55 331 3.0 9.0 0.00 0.01 0.00 91 1012.6
20260504222006 55 340 1.0 9.0 0.00 0.01 0.00 91 1012.6
20260504221506 55 345 1.0 9.0 0.00 0.01 0.00 91 1012.7
20260504221006 55 346 2.0 7.0 0.00 0.01 0.00 90 1012.6
20260504220007 55 349 3.0 9.0 0.00 0.01 0.00 90 1012.7
20260504215506 56 349 4.0 9.0 0.00 0.01 0.01 90 1012.7
20260504215005 56 349 4.0 9.0 0.00 0.01 0.01 91 1012.7
20260504214006 56 337 5.0 11.0 0.00 0.01 0.01 90 1012.7
20260504213505 56 339 3.0 11.0 0.00 0.01 0.01 90 1012.8
20260504213006 56 345 1.0 10.0 0.00 0.01 0.01 90 1012.9
20260504212505 56 339 2.0 8.0 0.00 0.01 0.01 90 1012.9
20260504212006 56 336 3.0 10.0 0.00 0.01 0.01 90 1012.9
20260504211505 56 334 4.0 10.0 0.00 0.01 0.01 90 1013.0
20260504211006 56 339 3.0 10.0 0.00 0.01 0.01 90 1012.9
20260504210506 56 348 2.0 8.0 0.00 0.01 0.01 90 1013.0
20260504210005 56 343 3.0 9.0 0.00 0.01 0.01 90 1013.0
20260504204506 57 343 3.0 10.0 0.00 0.01 0.01 90 1012.9
20260504204008 57 344 3.0 9.0 0.00 0.01 0.01 90 1012.9
20260504203506 57 347 3.0 11.0 0.00 0.01 0.01 90 1012.9
20260504203005 57 350 4.0 11.0 0.00 0.01 0.01 90 1012.9
20260504202506 57 350 3.0 7.0 0.00 0.01 0.01 90 1012.8
20260504201506 57 343 4.0 10.0 0.00 0.01 0.01 90 1012.8
20260504201006 57 348 4.0 9.0 0.00 0.01 0.01 90 1012.8
20260504200505 57 350 4.0 9.0 0.00 0.01 0.01 90 1012.8
20260504200006 57 353 4.0 10.0 0.00 0.01 0.01 90 1012.7
20260504195507 57 356 4.0 10.0 0.00 0.01 0.01 90 1012.7
20260504194507 57 1 4.0 11.0 0.00 0.01 0.01 89 1012.7
20260504194005 57 7 3.0 11.0 0.00 0.01 0.01 89 1012.6
20260504193506 57 15 3.0 9.0 0.00 0.01 0.01 89 1012.6
20260504193005 58 18 4.0 9.0 0.00 0.01 0.01 90 1012.6
20260504192005 58 8 4.0 10.0 0.00 0.01 0.01 89 1012.5
20260504191506 58 11 3.0 10.0 0.00 0.01 0.01 89 1012.4
20260504191006 58 6 3.0 9.0 0.00 0.01 0.01 89 1012.4
20260504190506 58 359 3.0 13.0 0.00 0.01 0.01 89 1012.4
20260504190005 58 3 3.0 13.0 0.00 0.01 0.01 89 1012.3
20260504185506 58 3 4.0 10.0 0.00 0.01 0.01 89 1012.4
20260504185005 58 3 4.0 10.0 0.00 0.01 0.01 89 1012.4
20260504184506 58 5 4.0 9.0 0.00 0.01 0.01 89 1012.3
20260504184005 59 8 4.0 9.0 0.00 0.01 0.01 89 1012.3
20260504183506 59 11 4.0 9.0 0.00 0.01 0.01 89 1012.3
20260504183005 59 10 4.0 9.0 0.00 0.02 0.01 89 1012.2
20260504182506 59 1 3.0 9.0 0.00 0.02 0.01 89 1012.2
20260504181506 59 339 5.0 14.0 0.00 0.02 0.01 89 1012.2
20260504181006 60 337 3.0 14.0 0.00 0.02 0.01 89 1012.3
20260504180507 60 350 1.0 5.0 0.00 0.03 0.01 90 1012.3
20260504175506 60 359 3.0 12.0 0.00 0.04 0.01 89 1012.2
20260504175005 60 5 2.0 12.0 0.00 0.04 0.01 90 1012.3
20260504174506 60 354 2.0 9.0 0.00 0.04 0.01 90 1012.2
20260504173506 60 352 1.0 8.0 0.00 0.04 0.01 90 1012.2
20260504173006 61 345 1.0 8.0 0.00 0.04 0.01 91 1012.1
20260504172506 61 343 0.0 8.0 0.00 0.04 0.01 91 1012.2
20260504172006 61 342 0.0 5.0 0.00 0.04 0.01 91 1012.2
20260504171507 61 336 0.0 5.0 0.00 0.04 0.01 91 1012.2
20260504171006 61 342 0.0 4.0 0.00 0.04 0.01 91 1012.2
20260504170506 61 343 1.0 8.0 0.00 0.04 0.01 90 1012.1
20260504150505 55 0 0.0 0.0 0.00 0.05 0.01 97 1012.0
20260504141006 55 0 0.0 0.0 0.00 0.11 0.01 97 1012.4
20260504140506 55 0 0.0 0.0 0.00 0.11 0.01 97 1012.4
20260504130505 55 0 0.0 0.0 0.00 0.13 0.01 97 1012.6
20260504110506 55 0 0.0 0.0 0.00 0.18 0.01 97 1012.8
20260504100506 55 0 0.0 0.0 0.00 0.24 0.01 97 1013.0
20260504082007 55 0 0.0 0.0 0.00 0.31 0.01 97 1012.9
20260504081506 55 0 0.0 0.0 0.00 0.31 0.01 97 1012.8
20260504080506 55 0 0.0 0.0 0.00 0.31 0.01 97 1012.8
20260504050506 55 0 0.0 0.0 0.00 0.31 0.01 97 1011.2
20260504050006 55 0 0.0 0.0 0.00 0.31 0.01 97 1011.1
20260504045006 54 0 0.0 0.0 0.00 0.31 0.01 97 1011.2
20260504042506 54 114 0.0 1.0 0.00 0.31 0.01 97 1011.2
20260504042007 55 331 0.0 1.0 0.00 0.31 0.01 97 1011.2
20260504041506 55 0 0.0 0.0 0.00 0.31 0.01 97 1011.2
20260504040506 54 0 0.0 0.0 0.00 0.31 0.01 97 1011.2
20260504040006 55 0 0.0 0.0 0.00 0.31 0.01 97 1011.2
20260504035507 54 0 0.0 0.0 0.00 0.31 0.01 97 1011.2
20260504035006 54 0 0.0 0.0 0.00 0.31 0.01 97 1011.2
20260504034506 54 0 0.0 0.0 0.00 0.31 0.01 97 1011.3
20260504034006 54 0 0.0 0.0 0.00 0.31 0.01 97 1011.3
20260504033506 54 0 0.0 0.0 0.00 0.31 0.01 97 1011.3
20260504033007 54 0 0.0 0.0 0.00 0.31 0.01 97 1011.3
20260504032006 54 0 0.0 0.0 0.00 0.31 0.01 97 1011.5
20260504031506 54 0 0.0 0.0 0.00 0.31 0.01 97 1011.5
20260504031008 54 0 0.0 0.0 0.00 0.31 0.01 97 1011.5
20260504030507 54 0 0.0 0.0 0.00 0.31 0.01 97 1011.6
20260504030006 54 0 0.0 0.0 0.00 0.31 0.01 97 1011.6
20260504025507 54 0 0.0 0.0 0.00 0.31 0.01 97 1011.5
20260504025007 53 0 0.0 0.0 0.00 0.31 0.01 96 1011.4
20260504024507 53 0 0.0 0.0 0.00 0.31 0.01 96 1011.3
20260504024006 53 0 0.0 0.0 0.00 0.31 0.01 97 1011.3
20260504023506 53 0 0.0 0.0 0.00 0.31 0.01 97 1011.2
20260504023006 53 0 0.0 0.0 0.00 0.31 0.01 96 1011.2
20260504022506 53 0 0.0 0.0 0.00 0.31 0.01 96 1011.2
20260504022006 53 0 0.0 0.0 0.00 0.31 0.01 96 1011.2
20260504021506 52 0 0.0 0.0 0.00 0.31 0.01 96 1011.2
20260504021007 52 0 0.0 0.0 0.00 0.31 0.01 96 1011.1
20260504020506 52 0 0.0 0.0 0.00 0.31 0.01 96 1011.1
20260504015506 52 0 0.0 0.0 0.00 0.31 0.01 96 1011.1
20260504015006 52 0 0.0 0.0 0.00 0.31 0.01 96 1011.0
20260504014006 51 0 0.0 0.0 0.00 0.31 0.01 96 1011.2
20260504013506 52 0 0.0 0.0 0.00 0.31 0.01 96 1011.2
20260504013006 51 0 0.0 0.0 0.00 0.31 0.01 96 1011.2
20260504012506 51 0 0.0 0.0 0.00 0.31 0.01 96 1011.1
20260504012006 51 0 0.0 0.0 0.00 0.31 0.01 95 1011.0
20260504011506 51 0 0.0 0.0 0.00 0.31 0.01 95 1011.1
20260504011006 52 0 0.0 0.0 0.00 0.31 0.01 95 1011.1
20260504010506 53 0 0.0 0.0 0.00 0.31 0.01 96 1011.0